Flag for Netherlands Weather past 2 weeks in 's-Hertogenbosch, Netherlands

Now
57 °F

Fog.


Feels Like: 57 °F
Forecast: 58 / 75 °F
Wind: 2 mph from Northeast

Location: Volkel

Current Time: Sep 17, 2014 at 12:37:15 AM

Latest Report: Sep 16, 2014 at 11:55 PM


Visibility: 2 mi

Pressure: 29.95 "Hg

Humidity: 100%

Dew point: 57 °F

Location of 's-HertogenboschLocation

Historic Weather in 's-Hertogenbosch — Graph

°F

's-Hertogenbosch temperature yesterday

Maximum temperature yesterday: 75 °F (at 3:25 PM)
Minimum temperature yesterday: 54 °F (at 4:55 AM)
Average temperature yesterday: 64 °F

Past Weeks' High & Low Weather Summary

 TemperatureHumidityPressure
High75 °F (Sep 5, 4:55 PM)100% (Sep 2, 12:25 AM)30.27 "Hg (Sep 2, 12:25 AM)
Low46 °F (Sep 12, 5:55 AM)46% (Sep 8, 4:55 PM)29.89 "Hg (Sep 6, 4:25 AM)
Average61 °F84%30.08 "Hg
* Reported Sep 1 11:25 PM — Sep 16 11:25 PM, 's-Hertogenbosch, Weather by CustomWeather, © 2014

Note: Actual official high and low records may vary slightly from our data, if they occured in-between our weather recording intervals... More about our weather records

Advertising

's-Hertogenbosch weather history for previous 24 hours

 ConditionsComfort  
Time TempWeatherWind HumidityBarometerVisibility
11:25 PM
Sep 16
59 °FFog.2 mph100%29.95 "Hg3 mi
10:55 PM59 °FFog.1 mph100%29.95 "Hg2 mi
10:25 PM59 °FFog.1 mph100%29.92 "Hg4 mi
9:59 PM59 °FFog.1 mph100%29.92 "Hg2 mi
9:25 PM61 °FFog.1 mph100%29.95 "Hg3 mi
8:55 PM63 °FFog.No wind94%29.95 "Hg4 mi
8:25 PM63 °FMild.1 mph94%29.92 "HgN/A
7:55 PM66 °FMild.1 mph88%29.92 "HgN/A
7:25 PM68 °FMild.1 mph78%29.92 "HgN/A
6:55 PM72 °FMild.3 mph69%29.92 "HgN/A
6:25 PM73 °FPassing clouds.3 mph65%29.92 "HgN/A
5:55 PM73 °FMild.3 mph65%29.92 "HgN/A
5:25 PM73 °FScattered clouds.6 mph65%29.92 "HgN/A
4:55 PM75 °FScattered clouds.7 mph61%29.92 "HgN/A
4:25 PM75 °FMild.7 mph61%29.92 "HgN/A
3:55 PM75 °FScattered clouds.8 mph61%29.95 "HgN/A
3:25 PM75 °FBroken clouds.6 mph57%29.95 "HgN/A
2:55 PM73 °FBroken clouds.8 mph65%29.95 "HgN/A
2:25 PM73 °FPartly sunny.5 mph65%29.95 "HgN/A
1:55 PM73 °FPartly sunny.6 mph65%29.95 "HgN/A
1:25 PM73 °FScattered clouds.5 mph61%29.98 "HgN/A
12:55 PM73 °FPartly sunny.5 mph69%29.98 "HgN/A
12:25 PM72 °FScattered clouds.6 mph73%29.98 "Hg6 mi
12:01 PM72 °FScattered clouds.3 mph73%29.98 "Hg5 mi
11:55 AM72 °FBroken clouds.3 mph78%29.98 "Hg6 mi
11:25 AM70 °FFog.3 mph78%29.98 "Hg4 mi
10:55 AM68 °FFog.3 mph83%29.98 "Hg4 mi
10:25 AM68 °FFog.3 mph83%29.98 "Hg4 mi
9:55 AM64 °FFog.5 mph94%29.98 "Hg3 mi
9:25 AM61 °FFog.5 mph100%29.98 "Hg2 mi
8:55 AM59 °FFog.3 mph100%29.98 "Hg2 mi
8:25 AM57 °FFog.2 mph100%29.98 "Hg1 mi
7:59 AM55 °FFog.1 mph100%29.98 "Hg0 mi
7:55 AM55 °FFog.1 mph100%29.98 "Hg0 mi
7:25 AM55 °FFog.1 mph100%29.98 "Hg1 mi
7:01 AM55 °FFog.3 mph100%29.98 "Hg1 mi
6:55 AM55 °FFog.3 mph100%29.98 "Hg0 mi
6:25 AM55 °FFog.3 mph100%29.98 "Hg0 mi
5:56 AM54 °FFog.3 mph100%29.98 "Hg0 mi
5:25 AM55 °FLight rain. Mostly cloudy.2 mph100%29.98 "Hg0 mi
4:58 AM54 °FFog.2 mph100%29.98 "Hg1 mi
4:55 AM54 °FFog.2 mph100%29.98 "Hg0 mi
4:25 AM57 °FFog.2 mph100%29.98 "Hg0 mi
3:55 AM55 °FFog.3 mph100%29.98 "Hg1 mi
3:25 AM57 °FFog.2 mph100%29.98 "Hg1 mi
2:55 AM59 °FFog.2 mph94%29.98 "Hg2 mi
2:25 AM59 °FFog.3 mph94%30.01 "Hg2 mi
1:55 AM59 °FFog.3 mph100%30.01 "Hg2 mi
1:25 AM59 °FFog.3 mph94%30.01 "Hg1 mi
12:59 AM57 °FFog.3 mph100%30.01 "Hg1 mi
12:55 AM57 °FFog.5 mph100%30.01 "Hg1 mi
12:25 AM57 °FFog.3 mph100%30.01 "Hg0 mi
Weather by CustomWeather, © 2014

See weather overviewHow to use our weather pages